When you browse on this site, cookies collect data to enhance your experience and personalize the content and advertising you see.
Visit our Privacy Policy to learn more. By continuing to use the site, you agree to this use of cookies and data.
  • In Spain
  • List of Countries
  • For 7 days
  • Water Temperature
  • Weather Map
  • Weather Widgets
  • user-avatar
    Login

    Hourly Weather Lampa

    Today, 25 January, Saturday

    Time Temperature Precipitation Wind Pressure Humidity
    00:00 +14°C° 0 mm 0 mps 690 mmHg 62%
    01:00 +14°C° 0 mm 0 mps 689 mmHg 62%
    02:00 +14°C° 0 mm 0 mps 689 mmHg 64%
    03:00 +13°C° 0 mm 0 mps 689 mmHg 65%
    04:00 +13°C° 0 mm 0 mps 689 mmHg 67%
    05:00 +16°C° 0 mm 0 mps 690 mmHg 58%
    06:00 +18°C° 0 mm 0 mps 691 mmHg 49%
    07:00 +21°C° 0 mm 0 mps 692 mmHg 40%
    08:00 +26°C° 0 mm 1 mps 692 mmHg 35%
    09:00 +28°C° 0 mm 2 mps 692 mmHg 30%
    10:00 +30°C° 0 mm 2 mps 693 mmHg 24%
    11:00 +31°C° 0 mm 3 mps 693 mmHg 23%
    12:00 +33°C° 0 mm 4 mps 693 mmHg 21%
    13:00 +34°C° 0 mm 4 mps 693 mmHg 19%
    14:00 +34°C° 0 mm 4 mps 693 mmHg 20%
    15:00 +33°C° 0 mm 5 mps 692 mmHg 21%
    16:00 +32°C° 0 mm 5 mps 692 mmHg 21%
    17:00 +28°C° 0 mm 4 mps 692 mmHg 27%
    18:00 +25°C° 0 mm 3 mps 692 mmHg 32%
    19:00 +21°C° 0 mm 2 mps 691 mmHg 37%
    20:00 +20°C° 0 mm 1 mps 691 mmHg 41%
    21:00 +19°C° 0 mm 1 mps 691 mmHg 45%
    22:00 +16°C° 0 mm 0 mps 691 mmHg 50%
    23:00 +15°C° 0 mm 0 mps 691 mmHg 48%

    Tomorrow, 26 January, Sunday

    Time Temperature Precipitation Wind Pressure Humidity
    00:00 +15°C° 0 mm 0 mps 690 mmHg 47%
    01:00 +15°C° 0 mm 0 mps 690 mmHg 46%
    02:00 +15°C° 0 mm 0 mps 690 mmHg 48%
    03:00 +14°C° 0 mm 0 mps 690 mmHg 51%
    04:00 +14°C° 0 mm 0 mps 690 mmHg 53%
    05:00 +16°C° 0 mm 0 mps 691 mmHg 45%
    06:00 +19°C° 0 mm 0 mps 692 mmHg 37%
    07:00 +21°C° 0 mm 0 mps 693 mmHg 30%
    08:00 +25°C° 0 mm 1 mps 693 mmHg 26%
    09:00 +28°C° 0 mm 1 mps 694 mmHg 23%
    10:00 +30°C° 0 mm 2 mps 694 mmHg 19%
    11:00 +31°C° 0 mm 3 mps 694 mmHg 18%
    12:00 +33°C° 0 mm 3 mps 694 mmHg 17%
    13:00 +34°C° 0 mm 4 mps 694 mmHg 16%
    14:00 +34°C° 0 mm 4 mps 693 mmHg 17%
    15:00 +34°C° 0 mm 4 mps 693 mmHg 18%
    16:00 +33°C° 0 mm 5 mps 693 mmHg 19%
    17:00 +28°C° 0 mm 4 mps 692 mmHg 26%
    18:00 +25°C° 0 mm 3 mps 692 mmHg 34%
    19:00 +20°C° 0 mm 2 mps 691 mmHg 41%
    20:00 +20°C° 0 mm 1 mps 691 mmHg 46%
    21:00 +18°C° 0 mm 1 mps 691 mmHg 51%
    22:00 +15°C° 0 mm 0 mps 691 mmHg 56%
    23:00 +15°C° 0 mm 0 mps 690 mmHg 56%

    Day after tomorrow, 27 January, Monday

    Time Temperature Precipitation Wind Pressure Humidity
    00:00 +15°C° 0 mm 0 mps 690 mmHg 56%
    01:00 +15°C° 0 mm 0 mps 689 mmHg 57%
    02:00 +15°C° 0 mm 0 mps 689 mmHg 57%
    03:00 +15°C° 0 mm 0 mps 689 mmHg 58%
    04:00 +14°C° 0 mm 0 mps 689 mmHg 58%
    05:00 +17°C° 0 mm 0 mps 690 mmHg 50%
    06:00 +20°C° 0 mm 0 mps 690 mmHg 41%
    07:00 +23°C° 0 mm 0 mps 691 mmHg 33%
    08:00 +27°C° 0 mm 1 mps 691 mmHg 30%
    09:00 +29°C° 0 mm 2 mps 692 mmHg 27%
    10:00 +31°C° 0 mm 3 mps 692 mmHg 24%
    11:00 +33°C° 0 mm 3 mps 692 mmHg 22%
    12:00 +34°C° 0 mm 4 mps 692 mmHg 21%
    13:00 +35°C° 0 mm 4 mps 692 mmHg 20%
    14:00 +34°C° 0 mm 5 mps 692 mmHg 22%
    15:00 +34°C° 0 mm 5 mps 692 mmHg 24%
    16:00 +33°C° 0 mm 5 mps 691 mmHg 26%
    17:00 +28°C° 0 mm 4 mps 691 mmHg 35%
    18:00 +25°C° 0 mm 3 mps 690 mmHg 44%
    19:00 +20°C° 0 mm 2 mps 690 mmHg 53%
    20:00 +20°C° 0 mm 1 mps 690 mmHg 58%
    21:00 +19°C° 0 mm 1 mps 689 mmHg 63%
    22:00 +15°C° 0 mm 0 mps 689 mmHg 68%
    23:00 +15°C° 0 mm 0 mps 689 mmHg 68%

    28 January, Tuesday

    Time Temperature Precipitation Wind Pressure Humidity
    00:00 +15°C° 0 mm 0 mps 688 mmHg 68%
    01:00 +14°C° 0 mm 0 mps 688 mmHg 68%
    02:00 +14°C° 0 mm 0 mps 688 mmHg 69%
    03:00 +14°C° 0 mm 0 mps 688 mmHg 69%
    04:00 +13°C° 0 mm 0 mps 688 mmHg 70%
    05:00 +16°C° 0 mm 0 mps 688 mmHg 61%
    06:00 +19°C° 0 mm 0 mps 689 mmHg 51%
    07:00 +23°C° 0 mm 1 mps 690 mmHg 42%
    08:00 +26°C° 0 mm 1 mps 690 mmHg 37%
    09:00 +28°C° 0 mm 2 mps 691 mmHg 32%
    10:00 +30°C° 0 mm 3 mps 691 mmHg 28%
    11:00 +30°C° 0 mm 3 mps 691 mmHg 26%
    12:00 +32°C° 0 mm 4 mps 691 mmHg 25%
    13:00 +33°C° 0 mm 5 mps 691 mmHg 23%
    14:00 +32°C° 0 mm 5 mps 691 mmHg 23%
    15:00 +30°C° 0 mm 5 mps 691 mmHg 23%
    16:00 +29°C° 0 mm 5 mps 691 mmHg 23%
    17:00 +26°C° 0 mm 4 mps 690 mmHg 32%
    18:00 +21°C° 0 mm 3 mps 690 mmHg 41%
    19:00 +18°C° 0 mm 2 mps 689 mmHg 50%
    20:00 +16°C° 0 mm 2 mps 689 mmHg 55%
    21:00 +15°C° 0 mm 1 mps 689 mmHg 61%
    22:00 +12°C° 0 mm 0 mps 689 mmHg 67%
    23:00 +12°C° 0 mm 0 mps 688 mmHg 67%

    29 January, Wednesday

    Time Temperature Precipitation Wind Pressure Humidity
    00:00 +12°C° 0 mm 0 mps 688 mmHg 67%
    01:00 +11°C° 0 mm 0 mps 687 mmHg 67%
    02:00 +11°C° 0 mm 0 mps 688 mmHg 67%
    03:00 +11°C° 0 mm 0 mps 688 mmHg 67%
    04:00 +11°C° 0 mm 0 mps 688 mmHg 66%
    05:00 +14°C° 0 mm 0 mps 688 mmHg 58%
    06:00 +16°C° 0 mm 0 mps 689 mmHg 49%
    07:00 +18°C° 0 mm 0 mps 690 mmHg 40%
    08:00 +23°C° 0 mm 1 mps 690 mmHg 35%
    09:00 +25°C° 0 mm 2 mps 691 mmHg 30%
    10:00 +27°C° 0 mm 3 mps 692 mmHg 25%
    11:00 +28°C° 0 mm 3 mps 692 mmHg 23%
    12:00 +30°C° 0 mm 3 mps 692 mmHg 22%
    13:00 +32°C° 0 mm 4 mps 692 mmHg 20%
    14:00 +30°C° 0 mm 4 mps 691 mmHg 24%
    15:00 +29°C° 0 mm 5 mps 691 mmHg 27%
    16:00 +28°C° 0 mm 5 mps 691 mmHg 30%
    17:00 +25°C° 0 mm 4 mps 691 mmHg 40%
    18:00 +21°C° 0 mm 3 mps 690 mmHg 50%
    19:00 +18°C° 0 mm 2 mps 690 mmHg 59%
    20:00 +18°C° 0 mm 1 mps 690 mmHg 64%
    21:00 +15°C° 0 mm 1 mps 690 mmHg 68%
    22:00 +13°C° 0 mm 0 mps 689 mmHg 73%
    23:00 +13°C° 0 mm 0 mps 689 mmHg 73%

    30 January, Thursday

    Time Temperature Precipitation Wind Pressure Humidity
    00:00 +12°C° 0 mm 0 mps 688 mmHg 72%
    01:00 +12°C° 0 mm 0 mps 688 mmHg 72%
    02:00 +12°C° 0 mm 0 mps 688 mmHg 72%
    03:00 +12°C° 0 mm 0 mps 688 mmHg 72%
    04:00 +11°C° 0 mm 0 mps 688 mmHg 72%
    05:00 +14°C° 0 mm 0 mps 688 mmHg 63%
    06:00 +17°C° 0 mm 0 mps 689 mmHg 54%
    07:00 +19°C° 0 mm 0 mps 690 mmHg 44%
    08:00 +24°C° 0 mm 1 mps 690 mmHg 39%
    09:00 +26°C° 0 mm 2 mps 691 mmHg 33%
    10:00 +29°C° 0 mm 2 mps 691 mmHg 28%
    11:00 +30°C° 0 mm 3 mps 691 mmHg 26%
    12:00 +32°C° 0 mm 4 mps 691 mmHg 24%
    13:00 +33°C° 0 mm 4 mps 691 mmHg 21%
    14:00 +33°C° 0 mm 4 mps 691 mmHg 22%
    15:00 +32°C° 0 mm 4 mps 691 mmHg 23%
    16:00 +32°C° 0 mm 5 mps 691 mmHg 24%
    17:00 +27°C° 0 mm 4 mps 690 mmHg 32%
    18:00 +24°C° 0 mm 3 mps 690 mmHg 39%
    19:00 +19°C° 0 mm 2 mps 690 mmHg 47%
    20:00 +18°C° 0 mm 2 mps 690 mmHg 52%
    21:00 +16°C° 0 mm 1 mps 690 mmHg 57%
    22:00 +14°C° 0 mm 0 mps 689 mmHg 62%
    23:00 +14°C° 0 mm 0 mps 689 mmHg 62%
    Show more